When you browse on this site, cookies collect data to enhance your experience and personalize the content and advertising you see.
Visit our Privacy Policy to learn more. By continuing to use the site, you agree to this use of cookies and data.
  • En España
  • Lista de países
  • Para 7 días
  • Temperatura del agua
  • El tiempo en el mapa
  • Informadores
  • user-avatar
    Iniciar sesión

    Tiempo cada hora Mulhule

    Hoy, 29 Febrero, Sábado

    Tiempo Temperatura Precipitaciones Viento Presión Humedad
    00:00 +28°C° 0 mm 7 mps 758 mmHg 66%
    01:00 +27°C° 0 mm 7 mps 758 mmHg 68%
    02:00 +27°C° 0 mm 7 mps 757 mmHg 71%
    03:00 +27°C° 0 mm 7 mps 757 mmHg 73%
    04:00 +26°C° 0 mm 7 mps 757 mmHg 74%
    05:00 +26°C° 0 mm 7 mps 758 mmHg 75%
    06:00 +26°C° 0 mm 7 mps 758 mmHg 76%
    07:00 +27°C° 0 mm 7 mps 758 mmHg 69%
    08:00 +28°C° 0 mm 8 mps 759 mmHg 63%
    09:00 +29°C° 0 mm 9 mps 760 mmHg 57%
    10:00 +32°C° 0 mm 9 mps 759 mmHg 52%
    11:00 +33°C° 0 mm 9 mps 759 mmHg 47%
    12:00 +34°C° 0 mm 9 mps 758 mmHg 42%
    13:00 +34°C° 0 mm 9 mps 757 mmHg 40%
    14:00 +34°C° 0 mm 8 mps 757 mmHg 38%
    15:00 +35°C° 0 mm 8 mps 756 mmHg 36%
    16:00 +34°C° 0 mm 8 mps 756 mmHg 40%
    17:00 +33°C° 0 mm 8 mps 756 mmHg 43%
    18:00 +32°C° 0 mm 7 mps 756 mmHg 46%
    19:00 +30°C° 0 mm 7 mps 757 mmHg 51%
    20:00 +29°C° 0 mm 7 mps 757 mmHg 55%
    21:00 +28°C° 0 mm 7 mps 757 mmHg 60%
    22:00 +28°C° 0 mm 7 mps 757 mmHg 63%
    23:00 +28°C° 0 mm 7 mps 757 mmHg 66%

    Mañana, 1 Marzo, Domingo

    Tiempo Temperatura Precipitaciones Viento Presión Humedad
    00:00 +27°C° 0 mm 8 mps 757 mmHg 68%
    01:00 +27°C° 0 mm 7 mps 757 mmHg 69%
    02:00 +27°C° 0 mm 6 mps 757 mmHg 70%
    03:00 +26°C° 0 mm 5 mps 757 mmHg 71%
    04:00 +26°C° 0 mm 5 mps 757 mmHg 71%
    05:00 +26°C° 0 mm 5 mps 757 mmHg 71%
    06:00 +26°C° 0 mm 4 mps 758 mmHg 71%
    07:00 +27°C° 0 mm 5 mps 758 mmHg 66%
    08:00 +28°C° 0 mm 5 mps 759 mmHg 61%
    09:00 +29°C° 0 mm 6 mps 760 mmHg 55%
    10:00 +30°C° 0 mm 6 mps 759 mmHg 51%
    11:00 +32°C° 0 mm 5 mps 759 mmHg 47%
    12:00 +33°C° 0 mm 5 mps 759 mmHg 42%
    13:00 +34°C° 0 mm 5 mps 758 mmHg 42%
    14:00 +34°C° 0 mm 5 mps 757 mmHg 42%
    15:00 +34°C° 0 mm 5 mps 756 mmHg 41%
    16:00 +33°C° 0 mm 4 mps 756 mmHg 42%
    17:00 +32°C° 0 mm 4 mps 757 mmHg 44%
    18:00 +31°C° 0 mm 3 mps 757 mmHg 45%
    19:00 +30°C° 0 mm 2 mps 757 mmHg 50%
    20:00 +29°C° 0 mm 1 mps 758 mmHg 55%
    21:00 +29°C° 0 mm 1 mps 759 mmHg 60%
    22:00 +28°C° 0 mm 1 mps 759 mmHg 63%
    23:00 +28°C° 0 mm 2 mps 758 mmHg 66%

    Pasado mañana, 2 Marzo, Lunes

    Tiempo Temperatura Precipitaciones Viento Presión Humedad
    00:00 +28°C° 0 mm 2 mps 758 mmHg 69%
    01:00 +28°C° 0.1 mm 4 mps 758 mmHg 74%
    02:00 +27°C° 0.1 mm 5 mps 758 mmHg 78%
    03:00 +27°C° 0.1 mm 6 mps 758 mmHg 83%
    04:00 +27°C° 0.1 mm 6 mps 758 mmHg 82%
    05:00 +27°C° 0.1 mm 6 mps 758 mmHg 81%
    06:00 +27°C° 0.1 mm 5 mps 758 mmHg 81%
    07:00 +27°C° 0 mm 5 mps 759 mmHg 78%
    08:00 +28°C° 0 mm 5 mps 760 mmHg 76%
    09:00 +28°C° 0 mm 5 mps 760 mmHg 74%
    10:00 +29°C° 0 mm 5 mps 760 mmHg 70%
    11:00 +30°C° 0 mm 5 mps 760 mmHg 66%
    12:00 +32°C° 0 mm 5 mps 759 mmHg 63%
    13:00 +32°C° 0 mm 5 mps 758 mmHg 61%
    14:00 +32°C° 0 mm 5 mps 758 mmHg 60%
    15:00 +32°C° 0 mm 6 mps 757 mmHg 59%
    16:00 +32°C° 0 mm 5 mps 757 mmHg 63%
    17:00 +30°C° 0 mm 5 mps 757 mmHg 66%
    18:00 +29°C° 0 mm 5 mps 757 mmHg 70%
    19:00 +29°C° 0 mm 4 mps 757 mmHg 71%
    20:00 +29°C° 0 mm 3 mps 758 mmHg 73%
    21:00 +28°C° 0 mm 2 mps 759 mmHg 75%
    22:00 +28°C° 0 mm 2 mps 759 mmHg 77%
    23:00 +28°C° 0 mm 2 mps 759 mmHg 79%

    3 Marzo, Martes

    Tiempo Temperatura Precipitaciones Viento Presión Humedad
    00:00 +27°C° 0 mm 2 mps 759 mmHg 82%
    01:00 +27°C° 0 mm 2 mps 758 mmHg 82%
    02:00 +27°C° 0 mm 1 mps 758 mmHg 83%
    03:00 +27°C° 0 mm 1 mps 758 mmHg 84%
    04:00 +27°C° 0.1 mm 1 mps 758 mmHg 83%
    05:00 +27°C° 0.1 mm 1 mps 759 mmHg 83%
    06:00 +27°C° 0.1 mm 1 mps 759 mmHg 83%
    07:00 +27°C° 0.1 mm 2 mps 760 mmHg 81%
    08:00 +28°C° 0.1 mm 3 mps 760 mmHg 79%
    09:00 +28°C° 0.1 mm 3 mps 761 mmHg 77%
    10:00 +29°C° 0 mm 4 mps 761 mmHg 71%
    11:00 +30°C° 0 mm 5 mps 760 mmHg 65%
    12:00 +32°C° 0 mm 6 mps 760 mmHg 59%
    13:00 +32°C° 0 mm 6 mps 759 mmHg 57%
    14:00 +33°C° 0 mm 7 mps 758 mmHg 55%
    15:00 +33°C° 0 mm 7 mps 757 mmHg 52%
    16:00 +32°C° 0 mm 7 mps 758 mmHg 54%
    17:00 +30°C° 0 mm 7 mps 758 mmHg 56%
    18:00 +30°C° 0 mm 7 mps 758 mmHg 58%
    19:00 +29°C° 0 mm 8 mps 758 mmHg 61%
    20:00 +29°C° 0 mm 8 mps 758 mmHg 65%
    21:00 +28°C° 0 mm 9 mps 759 mmHg 68%
    22:00 +28°C° 0 mm 9 mps 759 mmHg 71%
    23:00 +27°C° 0 mm 9 mps 759 mmHg 74%

    4 Marzo, Miércoles

    Tiempo Temperatura Precipitaciones Viento Presión Humedad
    00:00 +27°C° 0 mm 9 mps 758 mmHg 76%
    01:00 +27°C° 0 mm 9 mps 758 mmHg 77%
    02:00 +27°C° 0 mm 9 mps 758 mmHg 78%
    03:00 +27°C° 0 mm 9 mps 758 mmHg 79%
    04:00 +26°C° 0 mm 8 mps 758 mmHg 80%
    05:00 +26°C° 0 mm 8 mps 759 mmHg 80%
    06:00 +26°C° 0 mm 7 mps 759 mmHg 81%
    07:00 +27°C° 0 mm 8 mps 760 mmHg 76%
    08:00 +28°C° 0 mm 8 mps 760 mmHg 70%
    09:00 +29°C° 0 mm 8 mps 760 mmHg 65%
    10:00 +31°C° 0 mm 9 mps 760 mmHg 61%
    11:00 +32°C° 0 mm 10 mps 759 mmHg 57%
    12:00 +33°C° 0 mm 10 mps 759 mmHg 53%
    13:00 +33°C° 0 mm 10 mps 758 mmHg 51%
    14:00 +33°C° 0 mm 10 mps 757 mmHg 50%
    15:00 +33°C° 0 mm 10 mps 757 mmHg 48%
    16:00 +32°C° 0 mm 10 mps 757 mmHg 51%
    17:00 +31°C° 0 mm 10 mps 757 mmHg 54%
    18:00 +31°C° 0 mm 10 mps 757 mmHg 57%
    19:00 +29°C° 0 mm 10 mps 757 mmHg 60%
    20:00 +29°C° 0 mm 10 mps 758 mmHg 64%
    21:00 +28°C° 0 mm 9 mps 758 mmHg 67%
    22:00 +28°C° 0 mm 10 mps 758 mmHg 69%
    23:00 +28°C° 0 mm 10 mps 758 mmHg 71%

    5 Marzo, Jueves

    Tiempo Temperatura Precipitaciones Viento Presión Humedad
    00:00 +27°C° 0 mm 10 mps 758 mmHg 73%
    01:00 +27°C° 0 mm 10 mps 757 mmHg 73%
    02:00 +27°C° 0 mm 10 mps 757 mmHg 74%
    03:00 +27°C° 0 mm 9 mps 757 mmHg 75%
    04:00 +27°C° 0 mm 9 mps 757 mmHg 76%
    05:00 +27°C° 0 mm 9 mps 758 mmHg 77%
    06:00 +26°C° 0 mm 9 mps 758 mmHg 78%
    07:00 +27°C° 0 mm 9 mps 758 mmHg 72%
    08:00 +29°C° 0 mm 9 mps 759 mmHg 66%
    09:00 +31°C° 0 mm 10 mps 759 mmHg 60%
    10:00 +32°C° 0 mm 10 mps 759 mmHg 54%
    11:00 +32°C° 0 mm 10 mps 758 mmHg 48%
    12:00 +33°C° 0 mm 10 mps 758 mmHg 43%
    13:00 +33°C° 0 mm 10 mps 757 mmHg 43%
    14:00 +33°C° 0 mm 11 mps 756 mmHg 43%
    15:00 +33°C° 0 mm 11 mps 755 mmHg 43%
    16:00 +32°C° 0 mm 10 mps 755 mmHg 45%
    17:00 +32°C° 0 mm 10 mps 756 mmHg 47%
    18:00 +31°C° 0 mm 10 mps 756 mmHg 50%
    19:00 +29°C° 0 mm 10 mps 756 mmHg 54%
    20:00 +29°C° 0 mm 10 mps 757 mmHg 58%
    21:00 +28°C° 0 mm 10 mps 757 mmHg 62%
    22:00 +28°C° 0 mm 11 mps 757 mmHg 65%
    23:00 +28°C° 0 mm 11 mps 757 mmHg 67%
    Mostrar más